[[{"header":{"parameterUnit":"m.s-1","parameterCategory":1,"la1":30.2991,"la2":30.254,"lo1":-89.0895,"lo2":-89.0444,"dy":0.0017,"dx":0.0017,"nx":28,"ny":28,"refTime":"2024-09-01T03:00:00:Z","depth":0,"parameterNumber":2,"parameterNumberName":"U-component_of_WINDS"},"data":[0,0,0,0,0,0,0,0,0,0,0,0,0,0,0,0,0,0,0,0,0,0,0,0,0,0,0,0,0,0,0,0,0,0,0,0,0,0,0,0,0,0,0,0,0,0,0,0,0,0,0,0,0,0,0,0,0,0,-2.7983,-2.7984,0,-2.8046,-2.8047,-2.8048,-2.795,-2.7947,-2.7944,-2.794,-2.8011,-2.8016,-2.8021,0,0,0,0,0,0,0,0,0,0,0,0,0,-2.7785,-2.7789,-2.7983,-2.7984,-2.7985,-2.8046,-2.8047,-2.8048,-2.7951,-2.7947,-2.7943,-2.7939,-2.8009,-2.8015,-2.8021,0,0,0,0,0,0,0,0,0,0,0,0,0,-2.7862,-2.7791,-2.7983,-2.7943,-2.7941,-2.8046,-2.8047,-2.8048,-2.7952,-2.7947,-2.7942,-2.7937,-2.8007,-2.8015,-2.8022,-2.8171,0,0,-2.8045,-2.8049,0,0,0,0,0,0,0,0,-2.7858,-2.787,-2.7948,-2.7946,-2.7943,-2.7985,-2.8003,-2.809,-2.7953,-2.7948,-2.794,-2.7934,-2.8007,-2.8014,-2.8037,-2.8174,-2.8177,-2.8046,-2.8051,-2.8054,-2.8056,0,0,0,0,0,0,0,-2.7853,-2.7867,-2.8008,-2.795,-2.7947,-2.7925,-2.793,-2.8019,-2.8005,-2.7948,-2.7941,-2.7949,-2.8005,-2.803,-2.8038,-2.8178,-2.8046,-2.8053,-2.8057,-2.806,-2.8446,-2.8451,0,0,0,0,0,0,-2.7851,-2.7863,-2.8006,-2.801,-2.7887,-2.7933,-2.7939,-2.7977,-2.8004,-2.8003,-2.7954,-2.7945,-2.802,-2.803,-2.8041,-2.822,-2.8054,-2.8061,-2.8065,-2.844,-2.8447,-2.8453,0,0,0,0,0,0,-2.7848,-2.7865,-2.8004,-2.7935,-2.795,-2.7941,-2.7985,-2.7981,-2.8006,-2.8008,-2.8006,-2.7982,-2.8016,-2.803,-2.814,-2.8221,-2.8064,-2.8071,-2.8433,-2.8442,-2.845,-2.8578,0,0,0,0,0,0,-2.7842,-2.7864,-2.7919,-2.7936,-2.7954,-2.81,-2.799,-2.7986,-2.8019,-2.8008,-2.8035,-2.8034,-2.8013,-2.8129,-2.8148,-2.8229,-2.8077,-2.8426,-2.8437,-2.8447,-2.8567,-2.859,-2.861,0,0,0,0,0,-2.7836,-2.7953,-2.7922,-2.794,-2.8022,-2.8105,-2.8115,-2.8087,-2.8026,-2.8082,-2.8084,-2.8033,-2.8209,-2.8141,-2.8161,-2.8246,-2.8421,-2.8434,-2.8446,-2.8557,-2.8586,-2.861,0,0,0,0,0,0,-2.7946,-2.7954,-2.792,-2.8046,-2.8076,-2.8088,-2.8158,-2.8118,-2.8167,-2.8154,-2.8119,-2.8126,-2.8245,-2.8256,-2.8181,-2.8394,-2.8305,-2.8322,-2.8382,-2.841,-2.8431,-2.8427,-2.8083,0,0,0,0,0,-2.7985,-2.8049,-2.8053,-2.8164,-2.8181,-2.8167,-2.8202,-2.8178,-2.8208,-2.822,-2.823,-2.8263,-2.8325,-2.8367,-2.8425,-2.8567,-2.8574,-2.8636,-2.8657,-2.8675,-2.8692,-2.8772,-2.8801,-2.8495,-2.8495,-2.8495,0,0,-2.8066,-2.8079,-2.8122,-2.8187,-2.8207,-2.8278,-2.8178,-2.8256,-2.8309,-2.8233,-2.8338,-2.8346,-2.8381,-2.8509,-2.8566,-2.8522,-2.8777,-2.8691,-2.8705,-2.8712,-2.8789,-2.8818,-2.8843,-2.8504,-2.8502,-2.8501,0,0,-2.8251,-2.8265,-2.8361,-2.8383,-2.8414,-2.8405,-2.8428,-2.8448,-2.845,-2.8555,-2.85,-2.8564,-2.8671,-2.8699,-2.8727,-2.8926,-2.8883,-2.8946,-2.906,-2.914,-2.9164,-2.9185,-2.926,-2.9287,-2.8962,-2.8962,-2.8962,0,-2.8349,-2.8451,-2.8416,-2.8499,-2.8531,-2.8464,-2.8563,-2.8586,-2.8636,-2.8661,-2.861,-2.8746,-2.8764,-2.89,-2.8949,-2.8972,-2.9001,-2.8944,-2.9163,-2.9184,-2.9203,-2.9275,-2.9303,-2.897,-2.8969,-2.8968,-2.8967,0,-2.8572,-2.8644,-2.8718,-2.8767,-2.8807,-2.8897,-2.8879,-2.8925,-2.8898,-2.8895,-2.9005,-2.9024,-2.9086,-2.9116,-2.909,-2.925,-2.9222,-2.9167,-2.9078,-2.9241,-2.9308,-2.9334,-2.8981,-2.8978,-2.8976,-2.8974,0,0,-2.8829,-2.8858,-2.8887,-2.891,-2.894,-2.8996,-2.9085,-2.9145,-2.9187,-2.9223,-2.93,-2.9393,-2.9344,-2.9377,-2.9354,-2.9423,-2.9585,-2.936,-2.936,-2.9405,-2.9767,-2.9811,-2.9843,-2.9555,-2.956,-2.9564,-2.9766,0,-2.9017,-2.9169,-2.9141,-2.9291,-2.9359,-2.9297,-2.9375,-2.9404,-2.9405,-2.9465,-2.9465,-2.9534,-2.9461,-2.9481,-2.9546,-2.9551,-2.9658,-2.9535,-2.963,-2.9634,-2.9627,-2.9877,-2.9923,-3.0112,-2.9791,-2.9795,-2.9799,0,-2.9256,-2.9301,-2.9458,-2.948,-2.9508,-2.9579,-2.9633,-2.969,-2.9723,-2.9719,-2.9756,-2.9721,-2.9814,-2.9721,-2.9851,-2.9768,-2.9805,-2.9814,-2.9821,-2.9831,-2.9729,-2.9899,-3.0171,-3.0202,-2.9838,-2.9835,-2.9832,0,-2.9433,-2.9533,-2.9641,-2.9662,-2.969,-2.9742,-2.9756,-2.9784,-2.9823,-2.9871,-2.9897,-2.9955,-2.9989,-3.0036,-3.002,-2.9953,-3.0155,-3.0059,-3.0158,-3.0159,-3.0205,-3.0203,-3.0492,-3.0223,-3.0222,-3.0222,-3.0221,0,-2.9648,-2.9747,-2.9721,-2.9788,-2.9898,-2.9867,-2.9978,-2.9985,-3.0011,-3.008,-3.003,-3.0096,-3.0068,-3.0135,-3.0122,-3.0234,-3.0249,-3.0251,-3.0247,-3.0258,-3.0258,-3.0284,-3.0272,-3.0229,-3.0228,-3.0226,-3.0225,0,-2.9866,-2.9852,-2.9966,-2.9983,-2.999,-3.0071,-3.0088,-3.0152,-3.0148,-3.0237,-3.0256,-3.0252,-3.0327,-3.0314,-3.0398,-3.039,-3.0531,-3.0509,-3.052,-3.0517,-3.0617,-3.061,-3.0936,-3.0979,-3.0678,-3.0681,-3.0683,0,-3.0005,-3.008,-3.0106,-3.0148,-3.0167,-3.0235,-3.0275,-3.0247,-3.0291,-3.0336,-3.0396,-3.0466,-3.0522,-3.0646,-3.0652,-3.0717,-3.0699,-3.0809,-3.0708,-3.0718,-3.0706,-3.0703,-3.0713,-3.083,-3.0833,-3.0836,-3.0838,0,-3.0256,-3.0246,-3.0304,-3.0361,-3.041,-3.0453,-3.0492,-3.0531,-3.0507,-3.0559,-3.0635,-3.0678,-3.0764,-3.0837,-3.0898,-3.0915,-3.0876,-3.0869,-3.0896,-3.091,-3.0915,-3.0918,-3.0579,-3.0863,-3.086,-3.0859,-3.0857,-3.0856,-3.0442,-3.0507,-3.0537,-3.0604,-3.0631,-3.0669,-3.0731,-3.0736,-3.0798,-3.0865,-3.0845,-3.0933,-3.0967,-3.1045,-3.107,-3.114,-3.11,-3.1138,-3.1149,-3.116,-3.1174,-3.0901,-3.1151,-3.115,-3.115,-3.1149,-3.1148,0,-3.0694,-3.071,-3.0772,-3.0829,-3.0883,-3.0837,-3.0879,-3.0929,-3.1006,-3.104,-3.1096,-3.1186,-3.1256,-3.1268,-3.1337,-3.1391,-3.1375,-3.1411,-3.1408,-3.1414,-3.1203,-3.1175,-3.1423,-3.1423,-3.1423,-3.1423,-3.1423,-3.1423,-3.0832,-3.0942,-3.0936,-3.1059,-3.1075,-3.1159,-3.1188,-3.1225,-3.1252,-3.1354,-3.1413,-3.1419,-3.1446,-3.1516,-3.1581,-3.1583,-3.1612,-3.1656,-3.1652,-3.1456,-3.1428,-3.1402,-3.1376,-3.1662,-3.1662,-3.1857,-3.1859,-3.186]},{"header":{"parameterUnit":"m.s-1","parameterCategory":1,"la1":30.2991,"la2":30.254,"lo1":-89.0895,"lo2":-89.0444,"dy":0.0017,"dx":0.0017,"nx":28,"ny":28,"refTime":"2024-09-01T03:00:00:Z","depth":0,"parameterNumber":3,"parameterNumberName":"V-component_of_WINDS"},"data":[0,0,0,0,0,0,0,0,0,0,0,0,0,0,0,0,0,0,0,0,0,0,0,0,0,0,0,0,0,0,0,0,0,0,0,0,0,0,0,0,0,0,0,0,0,0,0,0,0,0,0,0,0,0,0,0,0,0,-0.8839,-0.8838,0,-0.8771,-0.877,-0.8769,-0.8733,-0.8733,-0.8733,-0.8733,-0.8661,-0.8659,-0.8657,0,0,0,0,0,0,0,0,0,0,0,0,0,-0.8935,-0.8934,-0.8839,-0.8838,-0.8838,-0.8771,-0.877,-0.8769,-0.8733,-0.8733,-0.8733,-0.8733,-0.8661,-0.8659,-0.8657,0,0,0,0,0,0,0,0,0,0,0,0,0,-0.8883,-0.8933,-0.8839,-0.8811,-0.8808,-0.8771,-0.877,-0.8769,-0.8733,-0.8733,-0.8733,-0.8732,-0.8662,-0.866,-0.8657,-0.8642,0,0,-0.8648,-0.8647,0,0,0,0,0,0,0,0,-0.8886,-0.8879,-0.8816,-0.8813,-0.881,-0.876,-0.8777,-0.8726,-0.8733,-0.8761,-0.8733,-0.8732,-0.8694,-0.8689,-0.8676,-0.8638,-0.8635,-0.8648,-0.8646,-0.8645,-0.8644,0,0,0,0,0,0,0,-0.889,-0.8882,-0.8812,-0.8816,-0.8811,-0.8801,-0.8794,-0.8768,-0.8729,-0.8759,-0.8756,-0.8749,-0.8692,-0.8679,-0.8674,-0.8634,-0.8648,-0.8646,-0.8644,-0.8643,-0.8578,-0.8578,0,0,0,0,0,0,-0.8898,-0.8885,-0.8814,-0.881,-0.8848,-0.88,-0.8791,-0.8776,-0.8729,-0.8722,-0.8749,-0.8747,-0.8683,-0.8677,-0.8671,-0.8649,-0.8645,-0.8643,-0.8641,-0.8578,-0.8578,-0.8578,0,0,0,0,0,0,-0.89,-0.8892,-0.8817,-0.8847,-0.8837,-0.8798,-0.8782,-0.8775,-0.8761,-0.8722,-0.8714,-0.8742,-0.8683,-0.8675,-0.8649,-0.8646,-0.8641,-0.8639,-0.8578,-0.8578,-0.8578,-0.8606,0,0,0,0,0,0,-0.8903,-0.8893,-0.8888,-0.8847,-0.8835,-0.8797,-0.8781,-0.8774,-0.8757,-0.8754,-0.8714,-0.8707,-0.8682,-0.8653,-0.8646,-0.8642,-0.8637,-0.8579,-0.8578,-0.8578,-0.8605,-0.8606,-0.8608,0,0,0,0,0,-0.8907,-0.8898,-0.8888,-0.8879,-0.8828,-0.8797,-0.879,-0.8763,-0.8757,-0.8751,-0.8725,-0.8708,-0.8648,-0.8651,-0.8643,-0.8638,-0.8579,-0.8578,-0.8578,-0.8604,-0.8606,-0.8608,0,0,0,0,0,0,-0.894,-0.8893,-0.888,-0.8859,-0.8832,-0.8791,-0.8782,-0.8766,-0.874,-0.8738,-0.8705,-0.8696,-0.8672,-0.8652,-0.8657,-0.8619,-0.8611,-0.8609,-0.8634,-0.8635,-0.8637,-0.8642,-0.8634,0,0,0,0,0,-0.8945,-0.8924,-0.8884,-0.8868,-0.8856,-0.8821,-0.8807,-0.8788,-0.8759,-0.8747,-0.8719,-0.8691,-0.8665,-0.8649,-0.8623,-0.8602,-0.8591,-0.8594,-0.8596,-0.8597,-0.8596,-0.8581,-0.8581,-0.8578,-0.8578,-0.8578,0,0,-0.8954,-0.8926,-0.8915,-0.8874,-0.8851,-0.883,-0.8812,-0.879,-0.8774,-0.8744,-0.8717,-0.8695,-0.8661,-0.8637,-0.8624,-0.8619,-0.8594,-0.8597,-0.8598,-0.8596,-0.8581,-0.8581,-0.8581,-0.8578,-0.8578,-0.8578,0,0,-0.8961,-0.8938,-0.8922,-0.8899,-0.8864,-0.8841,-0.8837,-0.8798,-0.8783,-0.8755,-0.8732,-0.8711,-0.8668,-0.8644,-0.8626,-0.8622,-0.8605,-0.8614,-0.8622,-0.8608,-0.8608,-0.8608,-0.8605,-0.8605,-0.8613,-0.8613,-0.8613,0,-0.8977,-0.8944,-0.8915,-0.8895,-0.8877,-0.8848,-0.8831,-0.881,-0.8769,-0.8756,-0.8751,-0.8695,-0.8671,-0.8639,-0.8638,-0.8625,-0.8618,-0.8619,-0.8611,-0.861,-0.861,-0.8607,-0.8606,-0.8614,-0.8614,-0.8614,-0.8614,0,-0.8965,-0.8943,-0.8934,-0.8894,-0.8875,-0.8856,-0.8823,-0.8807,-0.879,-0.8767,-0.8738,-0.8707,-0.8674,-0.8665,-0.8648,-0.863,-0.8628,-0.8617,-0.8608,-0.8612,-0.8608,-0.8607,-0.8616,-0.8616,-0.8615,-0.8615,0,0,-0.8991,-0.8935,-0.8933,-0.8914,-0.8873,-0.8854,-0.8833,-0.88,-0.8787,-0.8759,-0.8739,-0.8702,-0.8692,-0.8671,-0.8651,-0.8639,-0.8635,-0.8629,-0.8627,-0.863,-0.8612,-0.862,-0.8619,-0.8623,-0.8623,-0.8623,-0.8614,0,-0.8991,-0.8953,-0.8925,-0.8897,-0.8875,-0.8847,-0.8828,-0.88,-0.8778,-0.8754,-0.8729,-0.8703,-0.8692,-0.8679,-0.8666,-0.8638,-0.8631,-0.8638,-0.8604,-0.8603,-0.8613,-0.8617,-0.8626,-0.862,-0.8613,-0.8613,-0.8612,0,-0.8986,-0.8959,-0.8929,-0.8888,-0.8878,-0.8862,-0.8829,-0.8808,-0.8774,-0.8759,-0.8736,-0.8714,-0.8689,-0.8682,-0.8646,-0.8652,-0.8636,-0.862,-0.8619,-0.8614,-0.8608,-0.8612,-0.8617,-0.8616,-0.861,-0.861,-0.861,0,-0.9007,-0.8963,-0.8938,-0.8923,-0.8876,-0.8865,-0.8844,-0.8811,-0.8793,-0.8764,-0.8751,-0.8719,-0.8702,-0.8677,-0.8647,-0.8645,-0.8613,-0.8605,-0.8599,-0.8599,-0.8593,-0.8594,-0.8595,-0.8584,-0.8584,-0.8584,-0.8584,0,-0.901,-0.8992,-0.8947,-0.8932,-0.891,-0.8878,-0.8857,-0.8834,-0.8805,-0.8784,-0.8757,-0.8738,-0.87,-0.8675,-0.8651,-0.8624,-0.8617,-0.8602,-0.8596,-0.8604,-0.8606,-0.8593,-0.8592,-0.8584,-0.8584,-0.8584,-0.8584,0,-0.903,-0.8999,-0.897,-0.8927,-0.8916,-0.8902,-0.8864,-0.8848,-0.8823,-0.8797,-0.8789,-0.875,-0.8719,-0.8687,-0.8646,-0.8629,-0.8603,-0.8595,-0.8614,-0.8611,-0.8606,-0.8607,-0.8599,-0.8595,-0.8587,-0.8588,-0.8588,0,-0.9033,-0.9019,-0.8974,-0.8958,-0.8938,-0.8913,-0.8894,-0.8861,-0.8842,-0.8802,-0.879,-0.8757,-0.873,-0.8682,-0.8649,-0.8617,-0.8607,-0.8607,-0.8602,-0.861,-0.8606,-0.8607,-0.8604,-0.8608,-0.8608,-0.8609,-0.8609,0,-0.9042,-0.9027,-0.9001,-0.8969,-0.8947,-0.892,-0.8892,-0.888,-0.8841,-0.8821,-0.879,-0.8768,-0.8725,-0.8693,-0.8656,-0.8633,-0.8614,-0.861,-0.8607,-0.8615,-0.8627,-0.8619,-0.8617,-0.8611,-0.861,-0.861,-0.861,-0.861,-0.9053,-0.9038,-0.9004,-0.8975,-0.895,-0.8924,-0.8906,-0.8879,-0.8852,-0.8815,-0.8797,-0.8765,-0.873,-0.8679,-0.8657,-0.863,-0.8625,-0.862,-0.8619,-0.8618,-0.862,-0.8631,-0.8624,-0.8624,-0.8624,-0.8623,-0.8623,0,-0.9059,-0.9036,-0.9009,-0.8971,-0.8948,-0.8932,-0.8899,-0.8881,-0.8853,-0.8823,-0.8795,-0.8758,-0.8726,-0.8691,-0.8656,-0.8641,-0.8631,-0.8633,-0.8634,-0.8628,-0.8627,-0.8633,-0.8642,-0.8642,-0.8642,-0.8642,-0.8642,-0.8642,-0.906,-0.9034,-0.9014,-0.8974,-0.895,-0.8919,-0.8902,-0.8877,-0.8852,-0.8812,-0.8785,-0.8762,-0.8729,-0.8691,-0.8661,-0.8651,-0.8639,-0.8643,-0.8631,-0.863,-0.8629,-0.8627,-0.8633,-0.8641,-0.8641,-0.8634,-0.8634,-0.8633]}]]